Regional Weather Roundup
Issued by NWS

Home | Current Version | Previous Version | Text Only | Print | Product List | Glossary On
Versions: 1 2 3 4 5 6 7 8 9 10 11 12 13 14 15 16 17 18 19 20 21 22 23 24 25 26 27 28 29 30 31 32 33 34 35 36 37 38 39 40 41 42 43 44 45 46 47 48 49 50
000
ASUS43 KDTX 012210
RWRMI
MICHIGAN HOURLY REGIONAL WEATHER ROUNDUP
NATIONAL WEATHER SERVICE DETROIT/PONTIAC MI
500 PM EST SUN MAR 01 2015

NOTE: "FAIR" INDICATES FEW OR NO CLOUDS BELOW 12,000 FEET WITH NO
SIGNIFICANT WEATHER AND/OR OBSTRUCTION TO VISIBILITY.

MIZ047>049-052>055-059>063-066>070-074>076-081>083-012300-
SOUTHEAST LOWER MICHIGAN

CITY           SKY/WX    TMP DP  RH WIND       PRES   REMARKS
ADRIAN         CLOUDY    24  19  81 SW7       30.24F
ALMA           CLOUDY    25  17  72 W8        30.21F
ANN ARBOR      CLOUDY    24  17  74 W10       30.22F
BAD AXE        MOSUNNY   23  15  69 W10       30.20F
DETROIT CITY   CLOUDY    26  18  71 SW7       30.23F
DETROIT        PTSUNNY   25  18  74 SW6       30.24F
FLINT          CLOUDY    26  13  57 SW8       30.22F
GROSSE ILE     PTSUNNY   25  19  80 SW7       30.23F
HILLSDALE      PTSUNNY   23  18  78 W8        30.22S
HOWELL         MOSUNNY   24  13  62 W8        30.21F

CITY           SKY/WX    TMP DP  RH WIND       PRES   REMARKS
JACKSON        PTSUNNY   24  15  68 W8        30.22F
LAMBERTVILLE   CLOUDY    27  19  74 W5        30.25F
LANSING        CLOUDY    25  14  63 W8        30.22F
LAPEER         NOT AVBL
MASON          CLOUDY    25  14  64 W5        30.21F
MONROE         PTSUNNY   23  19  86 W3        30.23F
MT. CLEMENS    PTSUNNY   27  19  72 SW6       30.20S
PONTIAC        PTSUNNY   25  13  60 W12       30.20F
PORT HOPE        N/A     24  12  60 VRB7      30.19F
PORT HURON     MOSUNNY   27  16  63 SW5       30.22F
TRI CITIES     CLOUDY    25  15  66 SW13      30.21F
YPSILANTI      PTSUNNY   27  18  69 SW9       30.23F
$$
MIZ043>046-050>051-056>058-064>065-071>073-077>080-012300-
SOUTHWEST LOWER MICHIGAN

CITY           SKY/WX    TMP DP  RH WIND       PRES   REMARKS
BATTLE CREEK   CLOUDY    26  16  65 SW8       30.23F
BENTON HARBOR  MOSUNNY   22  17  81 SW9       30.26F
BIG RAPIDS     FLURRIES  24  18  79 SW12      30.17F
COLDWATER        N/A     22  16  76 W6        30.23F
HOLLAND        CLOUDY    25  19  78 SW13      30.25F
GRAND RAPIDS   CLOUDY    24  17  74 W12       30.23F
KALAMAZOO      CLOUDY    26  15  63 W9        30.24F
MARSHALL       PTSUNNY   22  15  72 SW6       30.22F
MUSKEGON       CLOUDY    24  17  74 SW15      30.24F
$$
MIZ016>042-012300-
NORTHERN LOWER MICHIGAN

CITY           SKY/WX    TMP DP  RH WIND       PRES   REMARKS
ALPENA         MOSUNNY   27  12  53 W10       30.13F
BEAVER ISLAND  CLOUDY    24  17  74 SW13G18   30.11F
BELLAIRE       PTSUNNY   26  14  61 S8        30.16F
CADILLAC       FLURRIES  22  15  74 SW8       30.12F
CHARLEVOIX     PTSUNNY   24  15  68 SW6       30.16F
FRANKFORT      CLOUDY    24  18  78 SW9G18    30.17F
GAYLORD        CLOUDY    22  13  68 W14       30.09F
GRAYLING       PTSUNNY   25  13  61 SW9G16    30.13S
HARBOR SPRINGS PTSUNNY   23  15  71 SW6       30.13F
HOUGHTON LAKE  CLOUDY    23  14  68 SW10      30.14F
MANISTEE       CLOUDY    23  16  74 SW10      30.19F
OSCODA         PTSUNNY   26  14  61 SW10      30.15F
TRAVERSE CITY  CLOUDY    25  13  60 SW12G20   30.14F
$$
MIZ007>008-015-012300-
EASTERN UPPER MICHIGAN

CITY           SKY/WX    TMP DP  RH WIND       PRES   REMARKS
KINROSS        CLOUDY    23  16  74 SW13G20   30.08F
MACKINAC ISLAN CLOUDY    22  16  77 SW9G16    30.10F
NEWBERRY       FLURRIES  22  17  79 SW17      30.05F
S. S. MARIE    CLOUDY    23  13  65 S13       30.07F
$$
MIZ004>006-011>014-085-012300-
CENTRAL UPPER MICHIGAN

CITY           SKY/WX    TMP DP  RH WIND       PRES   REMARKS
MANISTIQUE     CLOUDY    26  17  68 SW12G21   30.07F
ESCANABA       PTSUNNY   27  18  69 S13       30.08F
MENOMINEE      CLOUDY    27  14  59 SW15      30.10F
SAWYER-GWINN   CLOUDY    23  10  58 W13G21    30.02S
$$
MIZ001>003-009>011-084-012300-
WESTERN UPPER MICHIGAN

CITY           SKY/WX    TMP DP  RH WIND       PRES   REMARKS
IRON MOUNTAIN  CLOUDY    23  11  60 W12G22    30.05R
HOUGHTON       MOSUNNY   21  10  62 W24G30    30.01F
COPPER HARBOR    N/A     22  12  65 VRB7      30.03S
IRONWOOD       SUNNY     23   7  50 W18       30.03S
$$

ABBREVIATIONS USED IN REMARKS
   TC - TEMPERATURE IN CELSIUS
  WCI - WIND CHILL INDEX
   HX - HEAT INDEX
  VSB - VISIBILITY



USA.gov is the U.S. government's official web portal to all federal, state and local government web resources and services.